Regional Weather Roundup
Issued by NWS

Home | Current Version | Previous Version | Graphics & Text | Print | Product List | Glossary On
Versions: 1 2 3 4 5 6 7 8 9 10 11 12 13 14 15 16 17 18 19 20 21 22 23 24 25 26 27 28 29 30 31 32 33 34 35 36 37 38 39 40 41 42 43 44 45 46 47 48 49 50
000
ASUS44 KMEG 291810
RWRTN
TENNESSEE HOURLY STATE WEATHER ROUNDUP
NATIONAL WEATHER SERVICE MEMPHIS TN
100 PM CDT MON SEP 29 2014

TNZ002-004-019-021-049-052-054-088>092-291900-
WEST TENNESSEE

CITY           SKY/WX    TMP DP  RH WIND       PRES   REMARKS
MEMPHIS INTL   MOSUNNY   84  61  45 NE12      30.01F
NWS MEMPHIS      N/A     82 N/A N/A MISG        N/A
JACKSON        MOSUNNY   84  61  45 NE6       30.00F
DYERSBURG      MOSUNNY   82  55  39 CALM      30.01F
UNION CITY     SUNNY     82  57  42 N5        30.00F
PARIS          MOSUNNY   81  59  47 NE7       30.01F
HUNTINGDON     MOSUNNY   82  59  45 CALM      30.00F
LEXINGTON      MOSUNNY   82  61  47 N6        30.00F
SAVANNAH       MOSUNNY   84  63  48 N7        30.00F
$$

TNZ008-025-027-028-033-062-065-066-291900-
NORTH MIDDLE TENNESSEE

CITY           SKY/WX    TMP DP  RH WIND       PRES   REMARKS
NASHVILLE      MOSUNNY   83  59  44 E6        30.01F
DICKSON        MOSUNNY   82  59  44 VRB6      30.02F
PORTLAND       MOSUNNY   79  59  50 CALM      30.01F
CLARKSVILLE    MOSUNNY   83  58  42 CALM      30.00F
LEBANON        MOSUNNY   82  61  49 SW5       30.00F
SMYRNA         MOSUNNY   84  61  45 N7        30.00F
MURFREESBORO   SUNNY     82  59  45 VRB5      29.99F
COOKEVILLE     MOSUNNY   82  61  47 E5        30.01F
LIVINGSTON     SUNNY     76  58  53 N3        30.04F
GALLATIN       CLOUDY    82  63  52 NE5       30.02F
CROSSVILLE     PTSUNNY   75  58  55 N7        30.05F
$$

TNZ061-075-076-078-094-096-097-291900-
SOUTH MIDDLE TENNESSEE

CITY           SKY/WX    TMP DP  RH WIND       PRES   REMARKS
LEWISBURG      MOSUNNY   82  63  52 E5        30.00F
FAYETTEVILLE   MOSUNNY   79  63  57 N7        30.00F
TULLAHOMA      MOSUNNY   79  61  53 E6        30.02F
WINCHESTER     SUNNY     79  64  61 CALM      30.01F
MCMINNVILLE    MOSUNNY   81  64  57 CALM      30.01F
SHELBYVILLE    MOSUNNY   82  63  51 VRB3      30.01F
$$

TNZ017-018-042-046-047-291900-
NORTHEAST TENNESSEE

CITY           SKY/WX    TMP DP  RH WIND       PRES   REMARKS
TRI CITIES     CLOUDY    71  60  68 CALM      30.04F
ELIZABETHTON   PTCLDY    72  61  68 CALM      30.04F
$$

TNZ012-013-036-069-073-074-291900-
CENTRAL EAST TENNESSEE

CITY           SKY/WX    TMP DP  RH WIND       PRES   REMARKS
KNOXVILLE      PTSUNNY   76  62  62 E3        30.01F
OAK RIDGE      MOSUNNY   78  62  57 CALM      30.02F
GATLINBURG     MOCLDY    73  61  64 N3        30.02F
MORRISTOWN       N/A     73  63  68 CALM      30.04F
$$

TNZ083-085-099-291900-
SOUTHEAST TENNESSEE

CITY           SKY/WX    TMP DP  RH WIND       PRES   REMARKS
CHATTANOOGA    PTSUNNY   77  64  64 CALM      30.01F
$$

SKY/WX REPORTED AS FAIR MEANS FEW OR NO CLOUDS BELOW
12 THOUSAND FEET.



USA.gov is the U.S. government's official web portal to all federal, state and local government web resources and services.